Location: Saluda
(35.2377°N, 82.3468°W)
Time: 04:02:12
(UTC+00:00)

Vanguard 2 - Pass Details

Date: 11 October 2022
Orbit: 553 x 2933 km, 32.9° (Epoch: 04 December)

Event Time Altitude Azimuth Distance (km) Brightness Sun altitude
Rises 14:51:41 0° 225° (SW) 3,176 10.7 35.6°
Reaches altitude 10° 14:53:52 10° 216° (SW) 2,444 10.3 36.0°
Maximum altitude 14:59:13 39° 149° (SSE) 1,621 11.6 36.7°
Drops below altitude 10° 15:07:38 10° 85° (E) 3,856 11.7 37.9°
Sets 15:11:58 0° 79° (E) 5,272 12.1 38.5°
